sat.trackr.live / text

‹ back to catalog

QIANFAN-35

NORAD 61568 · 2024-185S

PAYLOAD ACTIVE UNKNOWN

§ Identity

Operator
Country
PRC
Launch date
2024-10-15
Launch site
TAISC
Launch vehicle
Mass (kg)
RCS (m²)

External: N2YO · Heavens-Above · Gunter

§ Orbital elements

Epoch: 2026-09-22T20:58:37.787808Z

Period
100.81 min
Inclination
88.9849°
Eccentricity
0.0008417
Mean motion
14.28361157 rev/d
Perigee alt
791.2 km
Apogee alt
803.3 km
Semi-major
7,175.4 km
B*
1.7477e-4
RAAN
43.5380°
Arg perigee
77.9987°
Mean anomaly
282.2150°
Rev number
11,073

§ Raw data

QIANFAN-351 61568U 24185S   26265.87404847  .00000451  00000+0  17477-3 0  99972 61568  88.9849  43.5380 0008417  77.9987 282.2150 14.28361157110734

JSON: /api/v1/satellites/61568 · /tle

For live sub-satellite position, see the globe view (requires WebGL).

§ Visibility from observer

Set your observer location to see the next 7 days of passes ≥ 10°. The values pass through the URL so the page stays shareable.

No JS? Fill the form by hand. The geolocation button needs JavaScript.